Time,TemperatureF,DewpointF,PressureIn,WindDirection,WindDirectionDegrees,WindSpeedMPH,WindSpeedGustMPH,Humidity,HourlyPrecipIn,Conditions,Clouds,dailyrainin,SolarRadiationWatts/m^2,SoftwareType,DateUTC
2013-08-13 00:21:00,68.0,51.0,-100.00,WSW,239,0.0,3.0,54,0.00,,,0.00,0.000000,,2013-08-13 07:21:00,
2013-08-13 00:33:00,68.0,51.0,-100.00,WSW,239,0.0,3.0,54,0.00,,,0.00,0.000000,,2013-08-13 07:33:00,
2013-08-13 04:11:00,63.0,52.0,-100.00,West,276,0.0,5.0,68,-99.99,,,0.00,0.000000,,2013-08-13 11:11:00,
2013-08-13 04:22:00,63.0,52.0,-100.00,West,276,0.0,5.0,68,-99.99,,,0.00,0.000000,,2013-08-13 11:22:00,
2013-08-13 04:31:00,63.0,52.0,-100.00,West,276,0.0,5.0,68,-99.99,,,0.00,0.000000,,2013-08-13 11:31:00,
2013-08-13 04:42:00,63.0,52.0,-100.00,West,276,0.0,5.0,68,-99.99,,,0.00,0.000000,,2013-08-13 11:42:00,
2013-08-13 08:44:00,64.0,54.0,-100.00,East,80,6.0,7.0,70,-99.99,,,0.00,173.000000,,2013-08-13 15:44:00,
2013-08-13 09:13:00,66.0,53.0,-100.00,ENE,65,5.0,8.0,63,0.00,,,0.00,379.000000,,2013-08-13 16:13:00,
2013-08-13 09:23:00,66.0,53.0,-100.00,ENE,65,5.0,8.0,63,0.00,,,0.00,379.000000,,2013-08-13 16:23:00,
2013-08-13 09:36:00,66.0,53.0,-100.00,ENE,65,5.0,8.0,63,0.00,,,0.00,379.000000,,2013-08-13 16:36:00,
2013-08-13 09:44:00,66.0,53.0,-100.00,ENE,65,5.0,8.0,63,0.00,,,0.00,379.000000,,2013-08-13 16:44:00,
2013-08-13 10:16:00,64.0,54.0,-100.00,WSW,253,4.0,6.0,69,0.00,,,0.00,576.000000,,2013-08-13 17:16:00,
2013-08-13 10:27:00,64.0,54.0,-100.00,WSW,253,4.0,6.0,69,0.00,,,0.00,576.000000,,2013-08-13 17:27:00,
2013-08-13 10:37:00,64.0,54.0,-100.00,WSW,253,4.0,6.0,69,0.00,,,0.00,576.000000,,2013-08-13 17:37:00,
2013-08-13 10:45:00,-999.0,-99.9,-100.00,WSW,253,4.0,6.0,69,0.00,,,0.00,576.000000,,2013-08-13 17:45:00,
2013-08-13 11:15:00,66.0,56.0,-100.00,West,262,11.0,15.0,69,0.00,,,0.00,744.000000,,2013-08-13 18:15:00,
2013-08-13 11:25:00,66.0,56.0,-100.00,West,262,11.0,15.0,69,0.00,,,0.00,744.000000,,2013-08-13 18:25:00,
2013-08-13 11:37:00,66.0,56.0,-100.00,West,262,11.0,15.0,69,0.00,,,0.00,744.000000,,2013-08-13 18:37:00,
2013-08-13 12:14:00,71.0,56.0,-100.00,West,270,14.0,18.0,60,-99.99,,,0.00,871.000000,,2013-08-13 19:14:00,
2013-08-13 12:24:00,71.0,56.0,-100.00,West,270,14.0,18.0,60,-99.99,,,0.00,871.000000,,2013-08-13 19:24:00,
2013-08-13 12:36:00,71.0,56.0,-100.00,West,270,14.0,18.0,60,-99.99,,,0.00,871.000000,,2013-08-13 19:36:00,
2013-08-13 12:44:00,71.0,56.0,-100.00,West,270,14.0,18.0,60,-99.99,,,0.00,871.000000,,2013-08-13 19:44:00,
2013-08-13 13:15:00,78.0,57.0,-100.00,West,276,14.0,19.0,49,-99.99,,,0.00,941.000000,,2013-08-13 20:15:00,
2013-08-13 13:22:00,78.0,57.0,-100.00,West,276,14.0,19.0,49,-99.99,,,0.00,941.000000,,2013-08-13 20:22:00,
2013-08-13 13:32:00,78.0,57.0,-100.00,West,276,14.0,19.0,49,-99.99,,,0.00,941.000000,,2013-08-13 20:32:00,
2013-08-13 13:45:00,78.0,57.0,-100.00,West,276,14.0,19.0,49,-99.99,,,0.00,941.000000,,2013-08-13 20:45:00,
2013-08-13 14:11:00,80.0,56.0,-100.00,WNW,285,13.0,19.0,44,0.00,,,0.00,951.000000,,2013-08-13 21:11:00,
2013-08-13 14:24:00,80.0,56.0,-100.00,WNW,285,13.0,19.0,44,0.00,,,0.00,951.000000,,2013-08-13 21:24:00,
2013-08-13 14:34:00,80.0,56.0,-100.00,WNW,285,13.0,19.0,44,0.00,,,0.00,951.000000,,2013-08-13 21:34:00,
2013-08-13 14:46:00,80.0,56.0,-100.00,WNW,285,13.0,19.0,44,0.00,,,0.00,951.000000,,2013-08-13 21:46:00,
2013-08-13 14:49:00,82.0,57.0,-100.00,West,280,14.0,21.0,42,0.00,,,0.00,905.000000,,2013-08-13 21:49:00,
2013-08-13 15:13:00,82.0,57.0,-100.00,West,280,14.0,21.0,42,0.00,,,0.00,905.000000,,2013-08-13 22:13:00,
2013-08-13 15:22:00,82.0,57.0,-100.00,West,280,14.0,21.0,42,0.00,,,0.00,905.000000,,2013-08-13 22:22:00,
2013-08-13 15:35:00,82.0,57.0,-100.00,West,280,14.0,21.0,42,0.00,,,0.00,905.000000,,2013-08-13 22:35:00,
2013-08-13 16:13:00,82.0,57.0,-100.00,West,280,14.0,19.0,42,0.00,,,0.00,795.000000,,2013-08-13 23:13:00,
2013-08-13 16:26:00,82.0,57.0,-100.00,West,280,14.0,19.0,42,0.00,,,0.00,795.000000,,2013-08-13 23:26:00,
2013-08-13 16:35:00,82.0,57.0,-100.00,West,280,14.0,19.0,42,0.00,,,0.00,795.000000,,2013-08-13 23:35:00,
2013-08-13 16:46:00,82.0,57.0,-100.00,West,280,14.0,19.0,42,0.00,,,0.00,795.000000,,2013-08-13 23:46:00,
2013-08-13 17:11:00,81.0,56.0,-100.00,WNW,285,12.0,18.0,42,0.00,,,0.00,638.000000,,2013-08-14 00:11:00,
2013-08-13 17:21:00,81.0,56.0,-100.00,WNW,285,12.0,18.0,42,0.00,,,0.00,638.000000,,2013-08-14 00:21:00,
2013-08-13 17:32:00,81.0,56.0,-100.00,WNW,285,12.0,18.0,42,0.00,,,0.00,638.000000,,2013-08-14 00:32:00,
2013-08-13 17:42:00,81.0,56.0,-100.00,WNW,285,12.0,18.0,42,0.00,,,0.00,638.000000,,2013-08-14 00:42:00,
2013-08-13 18:21:00,77.0,55.0,-100.00,West,278,11.0,16.0,47,0.00,,,0.00,450.000000,,2013-08-14 01:21:00,
2013-08-13 18:32:00,77.0,55.0,-100.00,West,278,11.0,16.0,47,0.00,,,0.00,450.000000,,2013-08-14 01:32:00,
2013-08-13 18:42:00,77.0,55.0,-100.00,West,278,11.0,16.0,47,0.00,,,0.00,450.000000,,2013-08-14 01:42:00,
2013-08-13 19:11:00,74.0,55.0,-100.00,West,263,9.0,15.0,52,0.00,,,0.00,247.000000,,2013-08-14 02:11:00,
2013-08-13 19:21:00,74.0,55.0,-100.00,West,263,9.0,15.0,52,0.00,,,0.00,247.000000,,2013-08-14 02:21:00,
2013-08-13 19:32:00,74.0,55.0,-100.00,West,263,9.0,15.0,52,0.00,,,0.00,247.000000,,2013-08-14 02:32:00,
2013-08-13 19:41:00,74.0,55.0,-100.00,West,263,9.0,15.0,52,0.00,,,0.00,247.000000,,2013-08-14 02:41:00,
2013-08-13 20:11:00,74.0,54.0,-100.00,WSW,246,10.0,11.0,50,0.00,,,0.00,62.000000,,2013-08-14 03:11:00,
2013-08-13 20:22:00,74.0,54.0,-100.00,WSW,246,10.0,11.0,50,0.00,,,0.00,62.000000,,2013-08-14 03:22:00,
2013-08-13 20:33:00,74.0,54.0,-100.00,WSW,246,10.0,11.0,50,0.00,,,0.00,62.000000,,2013-08-14 03:33:00,
2013-08-13 20:43:00,74.0,54.0,-100.00,WSW,246,10.0,11.0,50,0.00,,,0.00,62.000000,,2013-08-14 03:43:00,
2013-08-13 21:12:00,73.0,53.0,-100.00,WSW,257,4.0,11.0,50,0.00,,,0.00,1.000000,,2013-08-14 04:12:00,